Lid_Strength_Index
3 3 4 4 4 5 4 5 4 4 5 5 5 5 5 5 6 11 14 10 9 6 7 9 10 13 13 14 12 9 13 14 13 11 10 12 12 13 14 13 13 12 13 11 10
3 3 3 4 4 4 4 4 4 5 4 5 5 5 5 5 10 14 10 8 7 7 10 11 12 14 16 13 11 12 14 13 12 14 14 13 12 13 13 14 14 14 13 11 11
4 3 3 3 3 3 3 3 3 4 4 4 5 6 6 7 13 14 8 7 8 8 10 11 12 13 15 13 12 12 14 13 14 14 14 13 13 12 12 14 13 13 13 12 12
4 4 3 3 3 3 3 3 3 3 4 4 4 5 5 10 17 12 8 8 8 9 11 12 13 13 14 14 12 14 12 14 13 14 14 14 14 13 12 12 12 12 12 11 12
4 4 4 4 3 3 3 3 3 3 4 4 4 4 8 15 15 12 8 10 11 12 13 13 13 13 14 13 12 14 13 14 14 15 15 14 14 13 12 12 13 13 12 12 11
4 4 4 4 3 3 3 3 3 3 3 4 4 4 12 16 11 11 11 11 13 13 13 13 13 13 14 15 14 15 15 15 15 14 14 14 14 14 12 11 12 12 13 12 12
3 3 4 3 3 3 3 3 4 3 4 4 4 6 14 15 12 11 10 11 11 11 12 13 14 13 15 16 15 15 16 15 14 13 14 15 13 15 13 13 12 12 13 13 12
2 3 3 3 3 3 4 4 4 4 4 4 3 9 16 11 12 11 11 11 10 10 11 11 12 13 14 15 16 16 16 16 13 14 14 15 14 12 14 14 14 14 14 14 13
2 2 2 2 2 3 4 4 5 6 5 5 9 13 15 9 12 12 12 12 11 11 11 10 10 13 14 16 17 16 18 16 15 14 16 16 16 13 13 14 14 15 14 14 14
1 2 2 2 2 2 3 3 6 7 8 9 10 14 13 14 11 11 12 11 12 12 11 12 13 15 16 16 18 17 17 17 17 16 17 19 18 15 14 15 15 15 15 15 14
1 1 1 1 2 3 5 9 13 12 12 15 15 14 13 11 10 11 10 11 12 13 16 14 17 18 16 16 15 17 18 17 16 16 17 17 17 15 14 15 14 14 14 14 13
0 1 1 1 1 3 9 12 13 13 15 12 13 14 13 12 14 12 10 13 13 16 15 17 19 15 14 15 17 17 18 18 17 16 17 17 17 14 13 14 13 13 13 13 14
1 1 1 1 1 7 11 11 9 10 15 13 13 14 14 13 14 13 11 13 15 16 16 18 17 14 14 16 16 17 18 18 18 16 16 18 19 16 13 13 13 12 13 12 13
2 2 2 1 4 7 11 8 8 9 19 15 15 14 13 13 16 12 12 14 15 16 16 17 16 16 17 16 15 18 16 16 16 18 21 18 22 18 14 14 14 13 13 13 13
4 4 3 2 6 7 8 8 8 10 23 14 15 11 12 15 15 15 13 15 17 17 17 18 18 18 17 17 15 17 15 17 17 19 20 20 21 19 16 14 13 14 14 14 14
5 5 4 3 6 7 8 9 9 17 23 18 15 16 16 15 14 14 14 14 15 18 18 19 16 17 17 16 16 15 16 16 17 18 23 20 19 21 16 14 15 14 14 14 14
6 6 6 4 5 7 7 9 14 21 15 19 19 16 17 17 16 15 16 18 19 23 22 20 20 18 16 18 16 17 18 21 22 24 22 20 20 19 15 14 14 14 15 15 14
6 6 7 5 5 7 7 12 17 18 19 15 16 17 18 17 17 17 18 20 17 18 21 22 23 20 18 18 19 19 18 20 24 21 19 20 21 16 14 14 14 14 14 14 15
5 9 8 5 5 6 10 15 15 14 12 16 17 19 22 18 18 18 19 20 17 17 19 21 19 19 19 18 18 19 21 18 21 24 23 20 18 15 14 14 15 15 15 15 14
8 9 10 4 4 6 12 13 13 10 13 14 17 18 23 22 20 19 19 17 17 16 17 17 21 19 19 18 19 19 18 22 22 27 26 20 20 18 15 15 15 15 15 14 13
9 11 8 4 5 9 13 14 13 11 10 12 13 15 16 17 19 21 19 17 15 17 17 20 19 20 20 21 20 20 21 21 20 20 23 23 20 16 15 14 14 14 14 14 14
9 16 6 6 11 11 12 14 10 10 8 10 11 12 14 15 17 18 18 16 14 15 17 17 20 23 22 20 19 20 19 19 21 22 21 20 21 15 15 15 15 14 13 13 13
11 12 6 7 14 13 11 12 10 10 11 11 12 11 10 12 15 15 16 13 14 15 16 16 20 27 23 21 20 23 19 18 18 19 22 22 20 15 15 14 14 14 13 12 12
10 15 10 9 9 12 13 12 12 11 10 9 10 11 12 12 10 13 15 15 14 14 12 14 17 21 20 20 22 25 23 19 20 24 20 18 18 16 15 15 14 14 13 12 12
8 14 13 17 12 11 11 12 13 13 11 10 10 10 11 14 13 13 11 11 14 14 15 15 19 18 17 18 20 20 24 21 20 18 20 17 17 15 13 13 13 13 13 12 12
8 10 13 12 15 13 12 12 13 13 12 13 11 10 10 12 12 13 11 12 13 14 14 16 18 18 20 17 16 18 18 20 19 18 18 17 18 15 14 14 14 13 12 13 13
3 4 7 12 13 13 16 13 13 12 11 9 10 11 12 11 10 10 8 8 9 13 14 16 17 18 18 16 17 19 18 18 19 18 17 19 16 14 15 14 13 12 11 11 13